Vorticity
11 8 14 8 9 8 5 6 5 8 8 7 6 6 7 8 7 12 7 5 4 6 5 28 39 16 2 17 21 8 12 21 22 22 13 16 17 7 20 -1 -3 10 22 22 23 9 17 19 14 17 -16 -39 -19 1
8 10 -6 15 14 10 11 12 9 5 5 4 8 11 10 12 11 9 9 12 9 17 -13 1 4 10 8 5 2 -1 6 -2 -14 -9 -4 13 -0 -8 2 -2 5 13 7 -21 -15 -33 -41 -31 -28 -8 18 25 -18 22
13 15 17 16 15 14 9 7 6 6 9 13 14 14 13 13 15 10 13 11 11 18 12 57 -6 2 -3 -11 -24 -4 4 24 14 16 12 -2 3 4 -1 16 26 4 3 -16 6 -4 11 16 8 11 17 36 45 -9
29 17 12 12 10 9 9 10 11 12 12 10 10 13 17 13 17 21 1 -1 2 7 1 52 60 50 63 35 -16 21 17 -21 -10 11 5 10 10 21 4 5 5 5 0 -2 10 -16 0 20 16 18 -20 -5 6 6
2 8 10 11 12 13 12 12 11 11 12 12 13 12 12 10 12 9 16 17 15 5 -20 -4 13 14 35 36 26 25 29 25 16 16 11 9 10 14 11 14 6 11 12 14 3 35 0 3 15 17 15 16 11 8
3 11 14 12 11 12 13 12 13 14 12 11 11 10 9 9 11 11 13 16 27 17 20 7 -1 10 82 38 40 50 16 -6 -17 -14 -9 2 5 23 8 -2 17 -4 29 23 6 10 19 21 13 15 10 9 17 17
8 8 10 12 11 11 10 11 10 9 9 7 7 8 8 8 8 8 10 6 10 13 16 42 27 23 1 9 -16 -39 -15 -7 7 19 15 23 23 22 8 8 1 17 2 3 19 22 9 5 7 14 16 14 10 15
6 11 10 8 7 8 8 8 7 7 8 8 8 9 9 8 8 9 10 10 11 11 14 23 -13 -2 9 13 18 33 38 27 12 11 11 -1 7 18 9 20 10 3 -2 4 18 10 14 11 11 17 20 18 10 7
12 12 12 11 11 10 11 11 11 12 11 12 12 11 10 9 11 7 11 10 10 14 -8 -6 -5 12 30 13 -7 1 -12 -5 -10 -0 3 11 6 -26 -1 19 9 6 13 28 20 18 21 18 17 17 14 14 17 19
15 16 15 16 16 14 13 13 14 14 15 14 15 14 13 12 17 20 20 17 21 32 -1 -2 1 -4 18 4 8 21 16 28 10 27 34 20 -3 20 24 11 19 35 24 15 18 21 21 17 11 12 3 13 17 15
15 14 13 13 14 15 14 14 15 14 14 14 11 12 14 13 13 16 44 20 20 13 9 29 38 36 21 17 26 21 -9 2 22 17 19 11 -16 7 11 27 10 19 18 21 18 18 14 8 10 11 13 14 7 8
17 19 17 15 14 13 14 15 14 17 15 14 12 15 13 15 40 35 23 23 7 14 16 30 26 19 13 9 21 18 25 22 1 26 31 26 5 30 9 -3 9 16 22 12 9 2 2 3 5 7 5 1 2 9
6 11 15 17 15 15 15 15 16 16 19 20 13 26 33 21 12 3 15 2 -5 -7 1 10 9 10 9 14 23 8 19 12 39 21 9 16 -0 -23 13 15 8 12 19 6 8 6 17 22 25 19 16 22 26 23
6 6 8 9 14 14 13 14 14 13 10 11 12 16 1 10 13 26 23 4 7 3 8 7 3 -0 3 24 15 2 27 18 12 -7 -10 8 18 15 21 30 37 11 7 6 19 36 15 21 7 9 9 18 23 20
5 7 6 8 16 12 12 13 12 10 8 3 3 11 26 -0 -3 -21 -18 -1 -4 4 12 8 21 25 28 21 21 9 16 4 -11 -1 27 23 25 39 26 21 28 24 25 20 22 9 6 8 8 -0 -1 4 6 5
9 14 7 14 12 13 13 13 11 11 11 0 -23 -12 4 -4 2 15 16 13 11 7 2 7 22 16 12 -3 -5 -20 -23 19 19 18 30 10 -4 -3 -17 -17 10 -11 -39 -2 2 6 2 10 6 4 -3 1 4 8
17 7 16 12 12 11 13 10 13 10 20 7 12 13 3 -13 -28 -42 -30 -4 -10 -24 -19 -11 20 21 25 43 24 1 11 5 25 30 -14 -7 1 -37 -6 18 19 19 9 11 11 12 9 4 1 11 8 -1 0 -2
6 6 7 10 13 13 10 8 9 11 16 6 4 4 3 7 7 9 13 18 19 19 11 19 19 19 -20 -26 -37 -31 -19 -19 -2 -20 -5 21 12 -1 21 7 6 8 10 11 9 12 7 17 20 15 11 14 16 5
6 10 10 10 12 13 15 13 9 2 -0 6 6 7 7 8 10 10 12 17 13 11 12 11 25 25 31 27 19 26 34 20 -9 -12 -1 12 32 18 5 14 4 10 10 9 10 12 12 15 12 13 13 11 11 14
16 18 18 19 17 12 6 26 5 22 26 17 18 17 18 15 17 14 11 4 9 10 10 11 13 12 13 12 12 10 21 23 20 17 13 13 1 -19 29 8 7 11 14 14 12 11 10 11 9 11 11 13 10 9
16 18 18 17 21 9 11 -29 -13 11 8 11 33 35 25 7 -0 -3 3 8 7 -5 10 20 24 15 25 26 25 23 12 13 4 10 27 27 18 11 17 11 8 18 16 11 10 12 14 17 17 13 9 13 16 15
21 21 17 14 10 11 9 4 12 16 21 -1 2 -9 7 12 -2 -4 14 12 -3 -11 4 17 19 -24 12 0 8 -3 12 12 12 3 1 11 23 17 15 16 9 9 6 12 6 6 12 14 18 21 19 15 17 17
12 9 10 10 10 12 7 28 30 6 3 -1 6 7 4 9 9 19 8 10 13 16 18 16 15 16 22 26 3 14 8 16 21 19 18 23 33 17 12 18 10 7 10 2 3 1 6 6 13 14 17 16 16 19
9 9 8 6 12 17 17 10 8 10 5 6 7 4 3 9 14 13 -5 8 16 20 20 18 20 16 8 9 21 24 25 -2 8 11 4 23 33 9 1 11 17 5 7 5 -1 2 8 8 8 14 10 17 19 13
6 7 10 2 26 56 8 -13 -4 6 5 9 7 -2 -3 14 7 8 -10 15 33 22 14 39 48 35 23 31 24 16 11 14 25 27 14 10 17 35 15 13 12 16 17 13 1 4 7 5 9 5 13 4 25 14
14 22 -27 72 34 -4 6 12 10 10 16 12 5 6 20 17 14 -15 4 33 22 12 14 34 22 17 11 2 12 14 13 12 19 9 11 18 24 26 27 10 23 21 10 12 11 5 4 4 3 9 7 14 9 18
12 -23 14 18 -16 -5 7 2 5 8 12 4 11 36 41 23 -6 -14 4 26 23 3 -8 9 9 10 12 9 6 6 10 5 1 2 9 4 4 3 10 18 22 21 17 12 8 4 9 10 9 9 7 15 2 17
32 5 10 21 15 20 14 25 16 7 -3 9 41 6 -4 -25 -24 9 15 11 33 47 19 11 7 5 5 8 12 12 14 11 7 5 4 4 7 13 10 7 -0 4 7 6 5 6 8 7 12 14 7 16 8 20
6 -5 -0 -7 -24 -4 -9 -1 6 23 6 33 5 0 -2 21 17 8 8 2 26 16 1 8 9 8 13 10 7 3 14 18 14 7 8 11 16 14 16 13 11 12 12 10 13 13 11 11 9 14 8 11 14 14
4 5 7 11 10 7 5 10 4 -2 4 -3 6 9 9 4 17 3 19 8 -0 10 22 28 8 3 13 15 3 4 11 20 9 -1 2 6 8 13 12 10 5 5 8 9 13 14 12 11 11 10 9 10 14 11
11 22 17 9 4 13 17 17 13 15 17 15 15 22 15 17 25 32 14 12 19 30 21 30 27 25 25 31 21 17 19 18 19 17 16 17 20 17 18 15 19 18 8 10 7 9 11 19 22 16 12 14 16 1
26 23 23 12 18 8 7 14 16 13 10 18 14 2 10 17 15 12 7 -3 -1 23 21 9 15 3 -7 3 12 12 11 5 6 9 7 12 26 23 22 16 10 7 22 26 21 22 27 30 22 19 15 16 0 31
11 12 3 3 10 5 3 16 12 13 13 12 32 23 18 6 12 6 33 27 18 15 23 19 16 20 16 9 11 14 16 17 18 17 19 19 17 14 19 1 22 31 29 29 17 19 30 24 17 16 14 4 24 26
Height
3085 3087 3089 3091 3092 3093 3094 3094 3093 3093 3092 3091 3090 3089 3087 3086 3083 3082 3081 3080 3079 3076 3078 3078 3078 3078 3078 3077 3077 3078 3078 3076 3074 3074 3072 3070 3066 3065 3063 3062 3061 3064 3063 3060 3066 3064 3050 3042 3042 3044 3043 3040 3039 3036
3077 3077 3078 3080 3082 3083 3083 3084 3083 3083 3083 3082 3082 3081 3079 3079 3078 3076 3075 3074 3072 3071 3071 3071 3072 3072 3071 3072 3072 3070 3072 3072 3069 3069 3068 3064 3062 3059 3058 3056 3055 3056 3054 3052 3049 3042 3043 3040 3040 3039 3034 3031 3030 3026
3065 3067 3068 3071 3071 3072 3072 3073 3073 3073 3074 3074 3074 3074 3072 3071 3070 3069 3068 3067 3066 3062 3061 3061 3064 3064 3063 3065 3065 3063 3065 3065 3062 3062 3059 3055 3053 3053 3050 3046 3046 3045 3047 3040 3038 3035 3035 3033 3032 3028 3026 3021 3019 3018
3052 3055 3058 3060 3061 3062 3063 3063 3063 3063 3063 3064 3063 3064 3064 3064 3063 3063 3062 3061 3061 3059 3051 3052 3051 3051 3054 3056 3056 3055 3055 3055 3055 3053 3050 3045 3043 3042 3037 3039 3034 3038 3037 3031 3019 3024 3025 3022 3020 3015 3013 3011 3007 3005
3042 3045 3048 3050 3051 3052 3053 3054 3055 3056 3056 3055 3055 3055 3055 3055 3055 3054 3054 3055 3056 3056 3046 3040 3039 3044 3046 3047 3046 3045 3044 3044 3043 3043 3042 3038 3034 3036 3028 3024 3013 3027 3027 3019 3006 3016 3012 3008 3009 3006 3002 3000 2996 2989
3033 3036 3038 3041 3043 3044 3044 3045 3047 3047 3048 3048 3048 3047 3047 3047 3047 3046 3045 3048 3048 3046 3040 3033 3027 3029 3030 3031 3032 3033 3034 3035 3035 3034 3029 3026 3029 3028 3017 3003 3002 3014 3015 3010 3001 3005 3001 2998 2998 2996 2989 2986 2984 2977
3025 3028 3030 3032 3034 3034 3036 3036 3038 3038 3039 3039 3040 3040 3040 3040 3040 3041 3040 3040 3039 3038 3035 3029 3023 3025 3027 3027 3027 3027 3027 3028 3026 3022 3017 3017 3017 3017 3004 2990 3000 3003 3004 3001 2993 2991 2984 2987 2979 2982 2980 2975 2969 2966
3016 3019 3022 3023 3024 3024 3024 3027 3028 3029 3030 3030 3030 3031 3031 3032 3032 3034 3033 3029 3030 3032 3030 3024 3017 3018 3021 3020 3020 3021 3020 3018 3015 3012 3010 3009 3007 3001 2992 2991 2994 2992 2989 2987 2986 2981 2974 2971 2970 2969 2966 2965 2962 2958
3008 3010 3012 3014 3015 3016 3017 3019 3019 3021 3021 3021 3022 3022 3023 3023 3023 3025 3024 3023 3021 3025 3021 3015 3012 3013 3012 3013 3010 3011 3012 3009 3009 3004 3004 3002 2994 2983 2984 2982 2981 2981 2978 2974 2971 2969 2967 2962 2959 2959 2957 2954 2950 2948
3001 3001 3004 3006 3007 3007 3008 3010 3011 3012 3012 3013 3015 3015 3012 3014 3015 3015 3012 3011 3007 3005 3007 3003 3008 3005 3011 3007 3000 3004 3003 2997 2991 2991 2992 2986 2976 2974 2972 2971 2970 2969 2967 2964 2960 2959 2957 2956 2954 2951 2950 2946 2942 2939
2993 2995 2995 2997 2999 3000 3000 3001 3003 3004 3004 3006 3005 3007 3007 3006 3007 3005 3004 3002 2997 2996 2995 2999 3000 2997 2999 2998 2993 2996 2991 2988 2981 2980 2980 2973 2967 2966 2964 2963 2961 2959 2958 2955 2953 2952 2950 2949 2946 2944 2943 2940 2935 2933
2987 2988 2987 2990 2992 2992 2992 2995 2994 2996 2999 2999 3000 2999 3000 3000 2999 3000 2992 2991 2992 2993 2992 2992 2993 2995 2994 2991 2988 2984 2981 2978 2972 2968 2968 2961 2964 2961 2959 2958 2954 2952 2952 2950 2948 2946 2942 2941 2939 2937 2935 2932 2928 2926
2980 2981 2982 2984 2985 2986 2987 2988 2990 2991 2992 2993 2993 2993 2993 2992 2987 2985 2982 2985 2988 2986 2987 2989 2990 2990 2986 2985 2983 2978 2971 2968 2962 2959 2955 2956 2958 2956 2954 2952 2948 2946 2945 2944 2942 2939 2937 2935 2932 2930 2928 2924 2921 2918
2974 2975 2977 2977 2978 2981 2982 2983 2985 2986 2987 2988 2989 2987 2984 2978 2973 2974 2976 2981 2984 2984 2985 2984 2984 2983 2979 2978 2976 2970 2965 2958 2951 2949 2953 2953 2950 2947 2945 2943 2941 2939 2937 2936 2934 2932 2929 2927 2926 2924 2921 2918 2915 2912
2967 2968 2970 2971 2972 2974 2977 2977 2978 2979 2981 2982 2982 2974 2967 2968 2971 2973 2974 2977 2979 2979 2979 2977 2976 2975 2972 2968 2966 2962 2956 2950 2947 2947 2947 2945 2944 2942 2939 2937 2934 2932 2930 2928 2924 2921 2920 2920 2920 2920 2918 2916 2913 2910
2958 2960 2962 2964 2965 2967 2969 2970 2971 2971 2970 2972 2967 2962 2961 2962 2964 2967 2969 2971 2973 2972 2971 2971 2968 2966 2963 2960 2956 2952 2947 2944 2943 2944 2937 2936 2934 2933 2932 2928 2928 2926 2923 2923 2921 2918 2916 2916 2915 2914 2913 2910 2907 2905
2948 2950 2955 2955 2958 2960 2961 2961 2961 2960 2960 2956 2951 2953 2954 2957 2959 2962 2962 2965 2966 2963 2963 2965 2961 2957 2950 2944 2941 2940 2939 2941 2939 2937 2935 2933 2930 2927 2926 2925 2923 2921 2919 2918 2916 2915 2913 2911 2908 2907 2905 2905 2901 2899
2938 2943 2944 2947 2950 2951 2951 2950 2950 2948 2945 2945 2943 2944 2948 2949 2949 2949 2954 2956 2956 2955 2954 2953 2953 2944 2939 2933 2931 2933 2933 2933 2932 2926 2924 2923 2920 2920 2920 2917 2914 2912 2910 2909 2905 2903 2902 2901 2897 2896 2894 2892 2891 2890
2929 2932 2934 2938 2941 2940 2939 2938 2939 2934 2933 2934 2935 2937 2939 2938 2939 2941 2942 2943 2943 2943 2941 2939 2934 2925 2924 2925 2923 2922 2921 2920 2917 2916 2915 2914 2914 2911 2909 2907 2905 2902 2900 2897 2894 2893 2891 2888 2885 2883 2881 2879 2877 2875
2917 2920 2923 2926 2929 2928 2928 2927 2926 2924 2922 2925 2927 2928 2929 2929 2930 2929 2929 2930 2930 2929 2925 2920 2916 2916 2915 2914 2915 2912 2911 2910 2906 2900 2899 2901 2902 2900 2898 2896 2895 2893 2889 2886 2884 2882 2879 2877 2876 2873 2870 2867 2864 2863
2908 2910 2913 2916 2917 2918 2917 2915 2915 2915 2916 2916 2919 2919 2918 2918 2918 2917 2916 2919 2915 2913 2909 2907 2906 2905 2905 2902 2901 2900 2896 2896 2892 2889 2884 2882 2885 2884 2885 2885 2883 2882 2878 2876 2874 2872 2870 2866 2864 2861 2858 2857 2855 2852
2899 2902 2904 2906 2906 2907 2906 2905 2906 2907 2909 2908 2910 2911 2909 2907 2905 2905 2906 2904 2900 2899 2898 2896 2894 2893 2891 2890 2889 2887 2884 2881 2878 2876 2874 2872 2868 2869 2869 2870 2869 2868 2868 2866 2864 2861 2858 2855 2852 2849 2847 2844 2843 2840
2893 2895 2896 2897 2898 2897 2897 2898 2899 2899 2900 2899 2901 2900 2897 2895 2894 2894 2890 2888 2886 2886 2884 2881 2879 2879 2877 2876 2874 2872 2871 2869 2865 2863 2861 2857 2855 2855 2855 2856 2856 2855 2855 2856 2854 2852 2850 2847 2844 2840 2838 2835 2832 2830
2886 2886 2887 2887 2888 2887 2887 2888 2890 2892 2891 2890 2889 2888 2885 2884 2884 2881 2875 2875 2873 2871 2869 2867 2867 2864 2863 2862 2860 2858 2857 2856 2851 2850 2849 2846 2843 2844 2844 2844 2844 2844 2845 2845 2843 2842 2841 2839 2835 2833 2830 2827 2825 2821
2878 2878 2879 2877 2878 2878 2878 2880 2881 2882 2879 2879 2881 2878 2874 2875 2873 2869 2864 2858 2857 2855 2854 2853 2851 2849 2848 2848 2847 2846 2846 2843 2840 2837 2838 2836 2833 2832 2832 2833 2832 2833 2833 2833 2834 2833 2832 2830 2828 2825 2823 2820 2817 2813
2867 2867 2866 2862 2865 2868 2869 2870 2870 2871 2872 2872 2869 2868 2865 2865 2862 2854 2847 2844 2845 2844 2842 2841 2840 2839 2837 2837 2835 2835 2834 2833 2830 2827 2827 2826 2824 2821 2821 2821 2821 2823 2824 2823 2823 2823 2822 2821 2818 2815 2813 2811 2809 2804
2855 2854 2855 2857 2860 2862 2863 2862 2864 2864 2863 2860 2856 2856 2856 2852 2847 2838 2837 2835 2834 2833 2833 2832 2831 2829 2827 2825 2825 2823 2823 2822 2821 2819 2817 2816 2816 2814 2812 2811 2812 2814 2814 2813 2813 2813 2811 2809 2807 2805 2803 2801 2798 2795
2842 2846 2848 2853 2854 2854 2854 2854 2854 2853 2850 2848 2848 2845 2842 2837 2833 2830 2829 2827 2826 2823 2821 2820 2819 2817 2816 2815 2814 2812 2811 2810 2809 2807 2805 2805 2805 2805 2804 2803 2803 2804 2803 2802 2802 2801 2799 2798 2796 2795 2792 2789 2787 2785
2835 2840 2844 2844 2845 2845 2844 2843 2840 2838 2837 2837 2834 2831 2826 2825 2823 2818 2818 2818 2814 2812 2809 2807 2807 2806 2804 2803 2801 2800 2798 2797 2795 2794 2792 2791 2791 2792 2793 2792 2791 2791 2791 2790 2790 2788 2788 2786 2785 2784 2782 2780 2778 2775
2827 2832 2833 2834 2834 2831 2829 2829 2828 2829 2829 2826 2824 2820 2816 2811 2810 2810 2808 2805 2803 2800 2798 2796 2795 2793 2790 2789 2787 2786 2786 2784 2782 2781 2778 2777 2777 2779 2779 2778 2778 2778 2777 2776 2776 2776 2775 2773 2773 2773 2772 2771 2768 2766
2819 2822 2823 2822 2821 2819 2820 2820 2819 2818 2816 2813 2812 2809 2803 2800 2797 2796 2794 2792 2789 2788 2785 2783 2781 2780 2776 2774 2772 2770 2769 2771 2769 2767 2765 2764 2763 2763 2764 2765 2764 2764 2763 2763 2762 2762 2762 2761 2762 2763 2763 2761 2761 2759
2812 2812 2812 2811 2810 2812 2812 2810 2807 2805 2803 2801 2800 2797 2794 2790 2785 2782 2784 2783 2779 2776 2774 2771 2767 2766 2766 2762 2760 2758 2755 2755 2755 2753 2752 2751 2750 2750 2750 2751 2752 2751 2750 2749 2749 2748 2748 2749 2751 2753 2753 2753 2753 2751
2802 2802 2802 2802 2802 2801 2802 2800 2795 2793 2792 2791 2789 2788 2784 2780 2775 2774 2773 2770 2766 2762 2759 2757 2755 2753 2751 2749 2747 2745 2743 2742 2741 2740 2739 2738 2738 2739 2738 2739 2739 2738 2738 2738 2739 2739 2739 2741 2742 2744 2746 2747 2746 2745